Location: Newark
(49.8822°N, 3.1064°E)
Time: 07:04:16
(UTC+00:00)

ISS - Visible Passes

Search period start: 18 January 2020 00:00
Search period end: 28 January 2020 00:00
Orbit: 415 x 421 km, 51.6° (Epoch: 18 January)

Date Brightness Start Highest point End Pass type
(mag) Time Alt. Az. Time Alt. Az. Time Alt. Az.
20 Jan -0.9 18:59:27 10° SSW 18:59:48 12° SSW 18:59:48 12° SSW visible
21 Jan -1.8 18:12:06 10° S 18:14:05 18° SSE 18:14:05 18° SSE visible
22 Jan -1.4 17:25:16 10° SSE 17:26:43 12° SE 17:28:11 10° ESE visible
22 Jan -1.7 18:59:37 10° SW 19:01:13 25° SW 19:01:13 25° SW visible
23 Jan -3.0 18:11:50 10° SW 18:14:59 37° SSE 18:15:21 36° SE visible
23 Jan -0.2 19:48:16 10° W 19:48:17 10° W 19:48:17 10° W visible
24 Jan -2.3 17:24:12 10° SSW 17:27:04 26° SE 17:29:24 13° E visible
24 Jan -2.2 19:00:13 10° WSW 19:02:20 36° WSW 19:02:20 36° WSW visible
25 Jan -3.8 18:12:12 10° WSW 18:15:34 72° SSE 18:16:20 48° E visible
25 Jan -0.2 19:49:05 10° W 19:49:16 11° W 19:49:16 11° W visible
26 Jan -3.3 17:24:16 10° SW 17:27:33 52° SSE 17:30:18 14° E visible
26 Jan -2.3 19:00:58 10° W 19:03:14 38° WNW 19:03:14 38° WNW visible
27 Jan -3.8 18:12:52 10° W 18:16:14 75° NNW 18:17:09 44° ENE visible
27 Jan -0.3 19:49:49 10° WNW 19:50:05 12° WNW 19:50:05 12° WNW visible
